AMT671 KSFO-PHOG

Flight info

Callsign AMT671
Flight time N/A
Altitude 36000
Route GAPP7 BEBOP R464 BEKME/N0473F380 R464 BITTA LNY CAMPS4
Aircraft L101/H-SDFHIWXY/S

Departure

Time 2026-04-30 21:50
Airport San Francisco International Airport (KSFO)

Arrival

Time N/A
Airport Kahului International Airport (PHOG)
Time Latitude Longitude Altitude Speed Heading
2026-04-30 21:30 37.62133 -122.38927 26 ft 0 kts 208°
2026-04-30 21:39 37.62134 -122.38927 24 ft 1 kts 208°
2026-04-30 21:40 37.62155 -122.38912 28 ft 4 kts 207°
2026-04-30 21:40 37.62179 -122.38897 28 ft 4 kts 208°
2026-04-30 21:40 37.62203 -122.38881 28 ft 4 kts 205°
2026-04-30 21:40 37.62228 -122.38871 29 ft 4 kts 177°
2026-04-30 21:41 37.62249 -122.38881 26 ft 3 kts 122°
2026-04-30 21:41 37.62252 -122.38886 26 ft 0 kts 117°
2026-04-30 21:44 37.62248 -122.38866 25 ft 4 kts 96°
2026-04-30 21:44 37.62263 -122.38817 27 ft 8 kts 60°
2026-04-30 21:44 37.62263 -122.38741 28 ft 11 kts 110°
2026-04-30 21:44 37.62223 -122.38638 25 ft 15 kts 118°
2026-04-30 21:45 37.62168 -122.38510 28 ft 18 kts 117°
2026-04-30 21:45 37.62105 -122.38357 25 ft 21 kts 117°
2026-04-30 21:45 37.62032 -122.38186 26 ft 23 kts 117°
2026-04-30 21:45 37.61953 -122.38006 27 ft 23 kts 128°
2026-04-30 21:46 37.61833 -122.37865 26 ft 24 kts 120°
2026-04-30 21:46 37.61766 -122.37664 27 ft 25 kts 111°
2026-04-30 21:46 37.61695 -122.37453 24 ft 27 kts 118°
2026-04-30 21:46 37.61607 -122.37243 25 ft 26 kts 118°
2026-04-30 21:47 37.61521 -122.37038 29 ft 25 kts 119°
2026-04-30 21:47 37.61420 -122.36858 26 ft 26 kts 132°
2026-04-30 21:47 37.61319 -122.36671 28 ft 26 kts 116°
2026-04-30 21:47 37.61234 -122.36467 26 ft 26 kts 118°
2026-04-30 21:48 37.61148 -122.36265 25 ft 26 kts 118°
2026-04-30 21:48 37.61072 -122.36082 27 ft 18 kts 118°
2026-04-30 21:48 37.61062 -122.35956 25 ft 15 kts 65°
2026-04-30 21:48 37.61132 -122.35884 27 ft 9 kts 26°
2026-04-30 21:49 37.61192 -122.35895 25 ft 9 kts 312°
2026-04-30 21:49 37.61246 -122.36015 28 ft 40 kts 298°
2026-04-30 21:49 37.61515 -122.36656 27 ft 124 kts 298°
2026-04-30 21:49 37.61984 -122.37789 604 ft 151 kts 297°
2026-04-30 21:50 37.62468 -122.38977 1712 ft 153 kts 296°
2026-04-30 21:50 37.62804 -122.39782 2405 ft 156 kts 297°
2026-04-30 21:50 37.63546 -122.41602 3159 ft 202 kts 297°
2026-04-30 21:50 37.63998 -122.42743 3419 ft 226 kts 297°
2026-04-30 21:51 37.64767 -122.44545 3621 ft 242 kts 300°
2026-04-30 21:51 37.65618 -122.46505 3603 ft 267 kts 299°
2026-04-30 21:51 37.66485 -122.48607 4047 ft 271 kts 297°
2026-04-30 21:51 37.67333 -122.50706 4806 ft 272 kts 298°
2026-04-30 21:52 37.68199 -122.52850 5506 ft 276 kts 298°
2026-04-30 21:52 37.69085 -122.55021 6224 ft 280 kts 298°
2026-04-30 21:52 37.69997 -122.57222 6906 ft 284 kts 298°
2026-04-30 21:52 37.70925 -122.59438 7594 ft 287 kts 298°
2026-04-30 21:53 37.71865 -122.61670 8305 ft 289 kts 298°
2026-04-30 21:53 37.72783 -122.63935 9032 ft 292 kts 292°
2026-04-30 21:53 37.73152 -122.66458 9742 ft 297 kts 267°
2026-04-30 21:53 37.72588 -122.68984 10365 ft 306 kts 242°
2026-04-30 21:54 37.71254 -122.71171 10664 ft 324 kts 227°
2026-04-30 21:54 37.69658 -122.73275 10909 ft 340 kts 230°
2026-04-30 21:54 37.68230 -122.75757 11017 ft 358 kts 242°
2026-04-30 21:54 37.67122 -122.78642 11142 ft 373 kts 249°
2026-04-30 21:55 37.66192 -122.81767 11240 ft 387 kts 252°
2026-04-30 21:55 37.65279 -122.84984 11736 ft 388 kts 251°
2026-04-30 21:55 37.64327 -122.88184 12170 ft 393 kts 251°
2026-04-30 21:55 37.63335 -122.91401 12671 ft 396 kts 251°
2026-04-30 21:56 37.62342 -122.94651 13207 ft 396 kts 251°
2026-04-30 21:56 37.61366 -122.97928 13586 ft 402 kts 252°
2026-04-30 21:56 37.60398 -123.01235 14154 ft 403 kts 252°
2026-04-30 21:56 37.59430 -123.04562 14595 ft 405 kts 252°
2026-04-30 21:57 37.58455 -123.07897 15101 ft 406 kts 252°
2026-04-30 21:57 37.57483 -123.11200 15610 ft 408 kts 252°
2026-04-30 21:57 37.56491 -123.14562 16127 ft 410 kts 252°
2026-04-30 21:57 37.55495 -123.17945 16651 ft 413 kts 252°
2026-04-30 21:58 37.54497 -123.21345 17185 ft 415 kts 252°
2026-04-30 21:58 37.53492 -123.24768 17735 ft 417 kts 252°
2026-04-30 21:58 37.52483 -123.28200 18276 ft 420 kts 252°
2026-04-30 21:58 37.51463 -123.31659 18783 ft 422 kts 252°
2026-04-30 21:59 37.50439 -123.35128 19284 ft 424 kts 252°
2026-04-30 21:59 37.49406 -123.38623 19784 ft 427 kts 252°
2026-04-30 21:59 37.48365 -123.42129 20292 ft 429 kts 252°
2026-04-30 22:00 37.46262 -123.49202 21345 ft 434 kts 252°
2026-04-30 22:00 37.44130 -123.56377 22431 ft 440 kts 252°
2026-04-30 22:00 37.43052 -123.59990 22978 ft 443 kts 252°
2026-04-30 22:01 37.41964 -123.63629 23553 ft 446 kts 252°
2026-04-30 22:01 37.40873 -123.67287 24039 ft 448 kts 252°
2026-04-30 22:01 37.39776 -123.70971 24504 ft 451 kts 252°
2026-04-30 22:01 37.38681 -123.74629 24985 ft 453 kts 252°
2026-04-30 22:02 37.37565 -123.78346 25402 ft 457 kts 252°
2026-04-30 22:02 37.36431 -123.82131 25545 ft 467 kts 252°
2026-04-30 22:02 37.35274 -123.85999 25662 ft 477 kts 252°
2026-04-30 22:02 37.34093 -123.89934 25815 ft 486 kts 252°
2026-04-30 22:03 37.32895 -123.93905 26339 ft 484 kts 252°
2026-04-30 22:03 37.31697 -123.97850 26943 ft 482 kts 252°
2026-04-30 22:03 37.30505 -124.01777 27593 ft 479 kts 252°
2026-04-30 22:03 37.29322 -124.05680 28246 ft 476 kts 252°
2026-04-30 22:04 37.28149 -124.09553 28921 ft 473 kts 253°
2026-04-30 22:04 37.26979 -124.13403 29604 ft 471 kts 253°
2026-04-30 22:04 37.24652 -124.21028 30851 ft 465 kts 253°
2026-04-30 22:05 37.23498 -124.24810 31445 ft 462 kts 253°
2026-04-30 22:05 37.22352 -124.28561 32037 ft 459 kts 253°
2026-04-30 22:05 37.21210 -124.32294 32654 ft 456 kts 253°
2026-04-30 22:05 37.20075 -124.35998 33285 ft 454 kts 253°
2026-04-30 22:06 37.18945 -124.39676 33878 ft 451 kts 253°
2026-04-30 22:06 37.16715 -124.46924 34916 ft 446 kts 253°
2026-04-30 22:06 37.15602 -124.50536 35417 ft 444 kts 253°
2026-04-30 22:07 37.14489 -124.54144 35816 ft 445 kts 253°
2026-04-30 22:07 37.13368 -124.57780 35999 ft 448 kts 253°
2026-04-30 22:07 37.11123 -124.65040 36087 ft 446 kts 253°
2026-04-30 22:08 37.08880 -124.72266 36105 ft 444 kts 253°
2026-04-30 22:08 37.06643 -124.79463 36113 ft 444 kts 253°
2026-04-30 22:09 37.04396 -124.86666 36125 ft 443 kts 253°
2026-04-30 22:09 37.02148 -124.93863 36120 ft 444 kts 253°
2026-04-30 22:10 36.99959 -125.01072 36121 ft 442 kts 255°
2026-04-30 22:10 36.97931 -125.08287 36133 ft 442 kts 254°
2026-04-30 22:11 36.94859 -125.19141 36131 ft 441 kts 255°
2026-04-30 22:12 36.92891 -125.26404 36127 ft 441 kts 255°
2026-04-30 22:12 36.90922 -125.33665 36144 ft 441 kts 255°
2026-04-30 22:13 36.88945 -125.40921 36134 ft 441 kts 255°
2026-04-30 22:13 36.86971 -125.48170 36153 ft 441 kts 255°
2026-04-30 22:14 36.84999 -125.55413 36149 ft 441 kts 255°
2026-04-30 22:14 36.83012 -125.62651 36152 ft 440 kts 255°
2026-04-30 22:15 36.81044 -125.69827 36152 ft 440 kts 255°
2026-04-30 22:15 36.79057 -125.77058 36142 ft 440 kts 255°
2026-04-30 22:16 36.77070 -125.84276 36158 ft 440 kts 255°
2026-04-30 22:17 36.73077 -125.98695 36165 ft 439 kts 255°
2026-04-30 22:17 36.70075 -126.09493 36170 ft 440 kts 254°
2026-04-30 22:18 36.67056 -126.20282 36170 ft 440 kts 254°
2026-04-30 22:19 36.64032 -126.31068 36170 ft 440 kts 254°
2026-04-30 22:20 36.60997 -126.41852 36173 ft 440 kts 254°
2026-04-30 22:20 36.57964 -126.52576 36171 ft 440 kts 254°
2026-04-30 22:21 36.55925 -126.59746 36185 ft 439 kts 254°
2026-04-30 22:21 36.53887 -126.66904 36185 ft 439 kts 254°
2026-04-30 22:22 36.51852 -126.74061 36189 ft 439 kts 254°
2026-04-30 22:22 36.49812 -126.81206 36189 ft 439 kts 254°
2026-04-30 22:23 36.47766 -126.88345 36195 ft 438 kts 253°
2026-04-30 22:23 36.45711 -126.95476 36197 ft 438 kts 253°
2026-04-30 22:24 36.43569 -127.02574 36199 ft 439 kts 252°
2026-04-30 22:24 36.41434 -127.09665 36201 ft 438 kts 253°
2026-04-30 22:25 36.39373 -127.16731 36202 ft 438 kts 253°
2026-04-30 22:25 36.37306 -127.23837 36201 ft 438 kts 253°
2026-04-30 22:26 36.34190 -127.34478 36209 ft 437 kts 253°
2026-04-30 22:27 36.32114 -127.41559 36212 ft 437 kts 253°
2026-04-30 22:27 36.28997 -127.52171 36215 ft 436 kts 253°
2026-04-30 22:28 36.25871 -127.62771 36223 ft 436 kts 253°
2026-04-30 22:29 36.21709 -127.76838 36225 ft 436 kts 252°
2026-04-30 22:31 36.14357 -128.01472 36233 ft 436 kts 252°
2026-04-30 22:32 36.09097 -128.18993 36236 ft 435 kts 252°
2026-04-30 22:33 36.03799 -128.36524 36245 ft 435 kts 252°
2026-04-30 22:35 35.98480 -128.54015 36252 ft 435 kts 252°
2026-04-30 22:36 35.93495 -128.70304 36254 ft 435 kts 251°
2026-04-30 22:37 35.88850 -128.85366 36257 ft 434 kts 251°
2026-04-30 22:38 35.84909 -128.98148 36260 ft 434 kts 251°
2026-04-30 22:39 35.81680 -129.08536 36264 ft 434 kts 250°
2026-04-30 22:40 35.75178 -129.29376 36266 ft 434 kts 250°
2026-04-30 22:41 35.69727 -129.46722 36271 ft 435 kts 250°
2026-04-30 22:43 35.63164 -129.67482 36284 ft 435 kts 250°
2026-04-30 22:44 35.58761 -129.81344 36274 ft 435 kts 249°
2026-04-30 22:45 35.52110 -130.02119 36284 ft 436 kts 249°
2026-04-30 22:47 35.45414 -130.22900 36291 ft 437 kts 249°
2026-04-30 22:48 35.40926 -130.36745 36292 ft 437 kts 248°
2026-04-30 22:49 35.34179 -130.57454 36296 ft 437 kts 248°
2026-04-30 22:51 35.27384 -130.78167 36309 ft 437 kts 248°
2026-04-30 22:52 35.23969 -130.88510 36312 ft 437 kts 248°
2026-04-30 22:53 35.19418 -131.02251 36308 ft 438 kts 248°
2026-04-30 22:53 35.15984 -131.12597 36306 ft 438 kts 248°
2026-04-30 22:55 35.10219 -131.29835 36307 ft 439 kts 248°
2026-04-30 22:56 35.05596 -131.43625 36311 ft 439 kts 247°
2026-04-30 22:57 34.99780 -131.60867 36316 ft 440 kts 247°
2026-04-30 22:58 34.95116 -131.74627 36315 ft 440 kts 247°
2026-04-30 22:59 34.88039 -131.95320 36315 ft 441 kts 246°